sat.trackr.live / text

‹ back to catalog

STARLINK-2367

NORAD 47907 · 2021-021AZ

PAYLOAD ACTIVE UNKNOWN

§ Identity

Operator
Country
US
Launch date
2021-03-14
Launch site
AFETR
Launch vehicle
Mass (kg)
RCS (m²)

Purposes: comms

External: N2YO · Heavens-Above · Gunter

§ Orbital elements

Epoch: 2026-05-25T02:05:09.013632Z

Period
94.01 min
Inclination
53.1570°
Eccentricity
0.0001163
Mean motion
15.31708120 rev/d
Perigee alt
469.9 km
Apogee alt
471.5 km
Semi-major
6,848.9 km
B*
8.8992e-5
RAAN
285.7914°
Arg perigee
80.2297°
Mean anomaly
279.8836°
Rev number
28,772

§ Raw data

STARLINK-23671 47907U 21021AZ  26145.08690988  .00002398  00000+0  88992-4 0  99902 47907  53.1570 285.7914 0001163  80.2297 279.8836 15.31708120287722

JSON: /api/v1/satellites/47907 · /tle

For live sub-satellite position, see the globe view (requires WebGL).

§ Visibility from observer

Set your observer location to see the next 7 days of passes ≥ 10°. The values pass through the URL so the page stays shareable.

No JS? Fill the form by hand. The geolocation button needs JavaScript.